[[{"header":{"parameterUnit":"m.s-1","parameterCategory":1,"la1":30.2991,"la2":30.254,"lo1":-89.0895,"lo2":-89.0444,"dy":0.0017,"dx":0.0017,"nx":28,"ny":28,"refTime":"2024-05-06T09:00:00:Z","depth":0,"parameterNumber":2,"parameterNumberName":"U-component_of_WINDS"},"data":[0,0,0,0,0,0,0,0,0,0,0,0,0,0,0,0,0,0,0,0,0,0,0,0,0,0,0,0,0,0,0,0,0,0,0,0,0,0,0,0,0,0,0,0,0,0,0,0,0,0,0,0,0,0,0,0,0,0,-1.0497,-1.0498,0,-1.0591,-1.0592,-1.0593,-1.0652,-1.0653,-1.0653,-1.0653,-1.0752,-1.0754,-1.0756,0,0,0,0,0,0,0,0,0,0,0,0,0,-1.0372,-1.0374,-1.0497,-1.0498,-1.0499,-1.0591,-1.0592,-1.0593,-1.0652,-1.0653,-1.0653,-1.0653,-1.0751,-1.0754,-1.0756,0,0,0,0,0,0,0,0,0,0,0,0,0,-1.0442,-1.0375,-1.0497,-1.054,-1.0545,-1.059,-1.0592,-1.0594,-1.0652,-1.0653,-1.0653,-1.0654,-1.075,-1.0753,-1.0757,-1.0768,0,0,-1.0767,-1.0769,0,0,0,0,0,0,0,0,-1.0438,-1.0447,-1.0532,-1.0537,-1.0542,-1.061,-1.0584,-1.0652,-1.0652,-1.0611,-1.0653,-1.0654,-1.0704,-1.0712,-1.0728,-1.0773,-1.0777,-1.0768,-1.077,-1.0771,-1.0772,0,0,0,0,0,0,0,-1.0433,-1.0443,-1.0534,-1.0533,-1.054,-1.0556,-1.0566,-1.0597,-1.0654,-1.0615,-1.0619,-1.063,-1.0707,-1.0725,-1.0731,-1.0778,-1.0768,-1.0771,-1.0773,-1.0774,-1.0839,-1.0838,0,0,0,0,0,0,-1.0421,-1.0439,-1.0531,-1.0537,-1.049,-1.0557,-1.0569,-1.0588,-1.0654,-1.0664,-1.0629,-1.0632,-1.0719,-1.0727,-1.0735,-1.0753,-1.0771,-1.0775,-1.0777,-1.0839,-1.0839,-1.0838,0,0,0,0,0,0,-1.0418,-1.0429,-1.0527,-1.0489,-1.0503,-1.0559,-1.058,-1.059,-1.0607,-1.0665,-1.0675,-1.0636,-1.0719,-1.073,-1.076,-1.0757,-1.0776,-1.0779,-1.0839,-1.0839,-1.0838,-1.0789,0,0,0,0,0,0,-1.0415,-1.0428,-1.0432,-1.0489,-1.0505,-1.0549,-1.058,-1.0591,-1.0613,-1.0617,-1.0674,-1.0684,-1.0721,-1.0754,-1.0763,-1.0762,-1.0782,-1.084,-1.0839,-1.0839,-1.0791,-1.0787,-1.0783,0,0,0,0,0,-1.041,-1.0414,-1.0431,-1.0442,-1.0511,-1.0549,-1.0558,-1.06,-1.0612,-1.0617,-1.0654,-1.0682,-1.0756,-1.0757,-1.0767,-1.0767,-1.084,-1.0839,-1.0839,-1.0793,-1.0788,-1.0783,0,0,0,0,0,0,-1.0356,-1.0422,-1.0442,-1.0465,-1.0501,-1.0559,-1.0567,-1.0593,-1.0627,-1.063,-1.068,-1.0693,-1.0718,-1.0746,-1.0745,-1.0783,-1.0802,-1.0803,-1.0763,-1.0759,-1.0755,-1.0747,-1.0785,0,0,0,0,0,-1.0346,-1.0371,-1.0428,-1.0443,-1.046,-1.051,-1.0528,-1.0557,-1.0597,-1.0613,-1.0652,-1.069,-1.0722,-1.0742,-1.0775,-1.0796,-1.081,-1.0801,-1.0797,-1.0794,-1.0794,-1.0809,-1.0806,-1.0836,-1.0836,-1.0836,0,0,-1.0327,-1.0367,-1.0379,-1.0433,-1.0464,-1.049,-1.0522,-1.0548,-1.0568,-1.0617,-1.0647,-1.0677,-1.0724,-1.0749,-1.0762,-1.0773,-1.0789,-1.0793,-1.079,-1.0792,-1.0808,-1.0805,-1.0802,-1.0835,-1.0835,-1.0835,0,0,-1.0305,-1.0337,-1.0353,-1.0384,-1.0431,-1.0464,-1.0468,-1.0523,-1.0545,-1.0576,-1.0614,-1.0639,-1.0692,-1.0724,-1.0747,-1.0739,-1.0766,-1.0748,-1.0727,-1.0741,-1.0739,-1.0737,-1.0734,-1.0733,-1.0749,-1.0748,-1.0748,0,-1.0276,-1.0315,-1.0358,-1.0382,-1.0405,-1.045,-1.0467,-1.0496,-1.0551,-1.0566,-1.0578,-1.0647,-1.0681,-1.0715,-1.0713,-1.0731,-1.0737,-1.0742,-1.0735,-1.0734,-1.0733,-1.0731,-1.073,-1.0746,-1.0746,-1.0747,-1.0747,0,-1.0277,-1.0303,-1.0311,-1.0362,-1.0387,-1.0407,-1.0455,-1.0474,-1.0501,-1.0534,-1.0566,-1.0609,-1.0651,-1.0662,-1.0689,-1.07,-1.0706,-1.0725,-1.0745,-1.0727,-1.0726,-1.0726,-1.0742,-1.0743,-1.0744,-1.0745,0,0,-1.0222,-1.0298,-1.03,-1.0325,-1.038,-1.0403,-1.0426,-1.0467,-1.0483,-1.052,-1.0541,-1.0586,-1.0605,-1.0632,-1.0663,-1.0674,-1.0666,-1.0693,-1.0695,-1.0687,-1.0683,-1.0667,-1.0666,-1.0685,-1.0685,-1.0685,-1.0679,0,-1.0209,-1.0251,-1.0292,-1.032,-1.0346,-1.039,-1.041,-1.0447,-1.0479,-1.0507,-1.0542,-1.0573,-1.0596,-1.0612,-1.0626,-1.0664,-1.0666,-1.0665,-1.0706,-1.0707,-1.0693,-1.0665,-1.0649,-1.0641,-1.0679,-1.0679,-1.0679,0,-1.0199,-1.0233,-1.0264,-1.0318,-1.033,-1.0347,-1.0389,-1.0414,-1.0458,-1.048,-1.051,-1.0543,-1.0571,-1.0588,-1.0628,-1.0627,-1.0646,-1.0668,-1.0668,-1.0674,-1.0691,-1.067,-1.064,-1.0638,-1.0679,-1.0679,-1.0679,0,-1.0156,-1.0211,-1.0236,-1.0256,-1.0319,-1.0331,-1.0358,-1.0402,-1.0424,-1.0461,-1.0477,-1.0516,-1.0538,-1.0569,-1.0612,-1.0621,-1.0648,-1.0669,-1.0668,-1.0667,-1.0671,-1.0671,-1.0644,-1.0684,-1.0684,-1.0684,-1.0684,0,-1.0137,-1.0154,-1.0218,-1.0234,-1.0255,-1.0302,-1.0322,-1.0353,-1.0392,-1.0416,-1.0457,-1.0479,-1.0535,-1.0563,-1.0598,-1.0626,-1.0636,-1.0655,-1.0664,-1.0652,-1.0649,-1.0665,-1.0666,-1.0684,-1.0684,-1.0684,-1.0684,0,-1.0093,-1.0136,-1.0167,-1.0225,-1.024,-1.0253,-1.0303,-1.0321,-1.0355,-1.0384,-1.0394,-1.0448,-1.0485,-1.0531,-1.0582,-1.0605,-1.063,-1.0644,-1.0615,-1.062,-1.0617,-1.0616,-1.0599,-1.06,-1.0639,-1.0638,-1.0638,0,-1.0077,-1.0092,-1.0151,-1.0169,-1.0195,-1.0224,-1.0247,-1.0295,-1.0317,-1.0369,-1.0381,-1.042,-1.0453,-1.0509,-1.0554,-1.0594,-1.0609,-1.06,-1.0615,-1.0602,-1.0609,-1.0608,-1.061,-1.0596,-1.0595,-1.0595,-1.0594,0,-1.0046,-1.0067,-1.0098,-1.0137,-1.0163,-1.0196,-1.0231,-1.0244,-1.03,-1.0324,-1.036,-1.0387,-1.0439,-1.0477,-1.0523,-1.0553,-1.0583,-1.0589,-1.0592,-1.0579,-1.0561,-1.0571,-1.0604,-1.0589,-1.059,-1.059,-1.0591,-1.0591,-1.0016,-1.0031,-1.0075,-1.0109,-1.014,-1.0172,-1.0192,-1.0229,-1.026,-1.0305,-1.0332,-1.0368,-1.0414,-1.0478,-1.0506,-1.0537,-1.0548,-1.0551,-1.0552,-1.0552,-1.0548,-1.0556,-1.0545,-1.0545,-1.0546,-1.0546,-1.0546,0,-0.9987,-1.0017,-1.0048,-1.0095,-1.0122,-1.0148,-1.0189,-1.021,-1.0241,-1.028,-1.0312,-1.0355,-1.0394,-1.0442,-1.0483,-1.0498,-1.0513,-1.0508,-1.0507,-1.0514,-1.0535,-1.0529,-1.0495,-1.0495,-1.0495,-1.0495,-1.0495,-1.0495,-0.9975,-1.0001,-1.0028,-1.0071,-1.0102,-1.0137,-1.0158,-1.0189,-1.022,-1.0266,-1.0298,-1.0329,-1.0372,-1.0418,-1.0454,-1.0468,-1.0481,-1.0471,-1.0489,-1.0508,-1.0512,-1.0516,-1.0511,-1.0474,-1.0474,-1.0465,-1.0465,-1.0465]},{"header":{"parameterUnit":"m.s-1","parameterCategory":1,"la1":30.2991,"la2":30.254,"lo1":-89.0895,"lo2":-89.0444,"dy":0.0017,"dx":0.0017,"nx":28,"ny":28,"refTime":"2024-05-06T09:00:00:Z","depth":0,"parameterNumber":3,"parameterNumberName":"V-component_of_WINDS"},"data":[0,0,0,0,0,0,0,0,0,0,0,0,0,0,0,0,0,0,0,0,0,0,0,0,0,0,0,0,0,0,0,0,0,0,0,0,0,0,0,0,0,0,0,0,0,0,0,0,0,0,0,0,0,0,0,0,0,0,6.2148,6.2148,0,6.2181,6.2182,6.2182,6.2111,6.2108,6.2106,6.2104,6.2134,6.2137,6.214,0,0,0,0,0,0,0,0,0,0,0,0,0,6.2017,6.202,6.2148,6.2148,6.2149,6.2181,6.2182,6.2182,6.2111,6.2108,6.2106,6.2103,6.2133,6.2137,6.214,0,0,0,0,0,0,0,0,0,0,0,0,0,6.2065,6.2021,6.2148,6.2117,6.2115,6.2181,6.2182,6.2182,6.2112,6.2108,6.2105,6.2102,6.2132,6.2137,6.2141,6.2237,0,0,6.2154,6.2156,0,0,0,0,0,0,0,0,6.2062,6.207,6.2121,6.2119,6.2117,6.2138,6.2147,6.2201,6.2113,6.2113,6.2104,6.21,6.2138,6.2142,6.2156,6.2239,6.224,6.2155,6.2158,6.2159,6.2161,0,0,0,0,0,0,0,6.2059,6.2068,6.2161,6.2122,6.2119,6.21,6.2103,6.2157,6.2144,6.2112,6.2107,6.2113,6.2136,6.2152,6.2156,6.224,6.2155,6.2159,6.2161,6.2163,6.2404,6.2408,0,0,0,0,0,0,6.206,6.2066,6.216,6.2162,6.2081,6.2106,6.2109,6.2135,6.2144,6.2142,6.2116,6.2109,6.2146,6.2151,6.2157,6.227,6.2159,6.2164,6.2166,6.24,6.2405,6.2409,0,0,0,0,0,0,6.2058,6.2069,6.2158,6.2112,6.2122,6.2112,6.2141,6.2137,6.2153,6.2146,6.2143,6.2134,6.2143,6.215,6.2218,6.227,6.2166,6.217,6.2396,6.2402,6.2407,6.2498,0,0,0,0,0,0,6.2054,6.2069,6.2106,6.2114,6.2125,6.2221,6.2145,6.2141,6.2161,6.2153,6.2162,6.216,6.2141,6.2212,6.2223,6.2274,6.2173,6.2391,6.2399,6.2405,6.249,6.2506,6.2519,0,0,0,0,0,6.205,6.2129,6.2109,6.212,6.2172,6.2224,6.223,6.2207,6.2166,6.2202,6.2198,6.216,6.2263,6.2219,6.2231,6.2285,6.2388,6.2396,6.2405,6.2483,6.2503,6.2519,0,0,0,0,0,0,6.2126,6.213,6.2107,6.2191,6.2208,6.2212,6.2257,6.2229,6.2256,6.2247,6.2217,6.222,6.2293,6.2295,6.2247,6.2378,6.2318,6.2329,6.2374,6.2392,6.2407,6.2404,6.2177,0,0,0,0,0,6.2153,6.2197,6.2197,6.2271,6.2281,6.2268,6.229,6.2272,6.2287,6.2293,6.2294,6.2309,6.2344,6.2369,6.2401,6.249,6.2491,6.2533,6.2548,6.256,6.2569,6.2617,6.2635,6.2437,6.2437,6.2436,0,0,6.2209,6.2216,6.2245,6.2287,6.2298,6.2342,6.2275,6.2324,6.2356,6.23,6.2364,6.2366,6.238,6.246,6.2494,6.2464,6.2624,6.257,6.258,6.2583,6.2627,6.2646,6.2663,6.2442,6.2441,6.244,0,0,6.2333,6.2343,6.2407,6.242,6.2437,6.2428,6.2444,6.2452,6.2451,6.2516,6.2475,6.2512,6.2574,6.2586,6.2601,6.2731,6.2697,6.2743,6.2818,6.2865,6.2881,6.2894,6.294,6.2957,6.2752,6.2753,6.2753,0,6.2399,6.2466,6.2443,6.2496,6.2515,6.2468,6.2532,6.2544,6.2571,6.2585,6.2551,6.2629,6.2635,6.2717,6.2749,6.2762,6.2778,6.2741,6.2881,6.2894,6.2906,6.295,6.2967,6.2758,6.2757,6.2757,6.2756,0,6.2547,6.2594,6.2642,6.2672,6.2697,6.2755,6.2739,6.2767,6.2746,6.2741,6.2807,6.2813,6.2846,6.2864,6.2844,6.2943,6.2924,6.2886,6.2824,6.2931,6.2971,6.2988,6.2766,6.2764,6.2762,6.2761,0,0,6.2718,6.2736,6.2754,6.2767,6.2784,6.2819,6.2874,6.2908,6.2933,6.2953,6.2998,6.3052,6.3018,6.3034,6.3015,6.3056,6.3159,6.3013,6.3013,6.3039,6.3267,6.3296,6.3316,6.3136,6.314,6.3142,6.3266,0,6.2841,6.2939,6.292,6.3014,6.3057,6.3014,6.3062,6.3077,6.3073,6.3108,6.3103,6.3142,6.3094,6.3103,6.3142,6.3138,6.3204,6.3129,6.3177,6.3179,6.3174,6.3337,6.3366,6.3483,6.3282,6.3284,6.3286,0,6.2997,6.3026,6.3125,6.3136,6.3153,6.3197,6.3227,6.3261,6.3277,6.3271,6.3291,6.3264,6.3318,6.3257,6.3331,6.328,6.3299,6.33,6.3304,6.3307,6.3239,6.3344,6.352,6.3537,6.3311,6.3309,6.3307,0,6.3112,6.3175,6.3243,6.3256,6.327,6.3302,6.3309,6.3322,6.3344,6.3369,6.3383,6.3414,6.3431,6.3455,6.3437,6.3395,6.3514,6.3451,6.351,6.351,6.3536,6.3535,6.3718,6.3549,6.3549,6.3549,6.3548,0,6.3251,6.3314,6.3295,6.3337,6.3406,6.3383,6.3451,6.3452,6.3464,6.3505,6.3468,6.3507,6.3481,6.3517,6.3503,6.3566,6.3574,6.357,6.3565,6.3573,6.3573,6.3584,6.3575,6.3553,6.3552,6.3551,6.3551,0,6.3391,6.3381,6.3453,6.3461,6.3465,6.3515,6.3521,6.3559,6.3554,6.3605,6.3616,6.3606,6.3647,6.3631,6.3674,6.3664,6.3745,6.373,6.374,6.3736,6.3796,6.379,6.3991,6.4016,6.3833,6.3834,6.3836,0,6.348,6.3527,6.3542,6.3567,6.3577,6.3618,6.3641,6.362,6.3645,6.3668,6.3703,6.3741,6.377,6.3836,6.3832,6.3864,6.3849,6.3918,6.3854,6.386,6.385,6.3847,6.3852,6.393,6.3932,6.3934,6.3936,0,6.3639,6.3632,6.3667,6.3701,6.373,6.3755,6.3777,6.3799,6.378,6.3809,6.3851,6.3874,6.3918,6.3956,6.3985,6.399,6.396,6.3956,6.3971,6.3979,6.3983,6.3981,6.3775,6.3951,6.395,6.3948,6.3948,6.3947,6.3755,6.3796,6.3813,6.3853,6.3868,6.3889,6.3926,6.3926,6.3961,6.3996,6.3982,6.403,6.4044,6.4081,6.4091,6.4127,6.41,6.4122,6.4128,6.4134,6.4141,6.3978,6.4132,6.4132,6.4131,6.4131,6.4131,0,6.3912,6.3921,6.3959,6.3992,6.4023,6.3994,6.4016,6.4044,6.4088,6.4105,6.4135,6.4183,6.4219,6.4219,6.4253,6.4282,6.4269,6.4291,6.4289,6.429,6.4163,6.4147,6.4302,6.4302,6.4302,6.4302,6.4301,6.4301,6.3997,6.4064,6.406,6.4133,6.4141,6.419,6.4205,6.4225,6.4238,6.4294,6.4325,6.4325,6.4335,6.4369,6.4401,6.44,6.4413,6.4441,6.4435,6.4316,6.4299,6.4283,6.4267,6.4445,6.4445,6.4559,6.456,6.4561]}]]